NOAA 16 DEB, 41366

Orbit data source: Space-Track

NOAA 16 DEB, 41366 is space debris in SSO originally from a launch on Thu, 21 Sep 2000 UTC launched from the Air Force Western Test Range (AFWTR). Debris objects in space refer to the collection of defunct objects orbiting the Earth. Examples of debris include non-operational satellites, rocket bodies, and fragments generated from explosions, collisions, or faulty payload assembly.

Loading next visibility...
Identifier
41366, 2000-055JK
Orbit
SSO
Country
Flag of USUS
Related business
Manufacturer
Unknown
Mission
Spacecraft
Bus & Motor
Unknown
Mass
Unknown
Launch date (UTC)
2000-09-21 (25 years ago)
Launch vehicle
Unknown
Launch site
Air Force Western Test Range (AFWTR)
Object type
Payload
Rocket body
Debris
Shape & HBR
Unknown shape, 0.1 m
Radar Cross Section
Small (<0.1 m²)

Expand to show TLE details & history
Last TLE update: 1 day ago

TLE from 1 day ago
0 NOAA 16 DEB
1 41366U 00055JK  25351.51799688  .00008858  00000-0  29900-2 0  9990
2 41366  98.9358  96.6232 0024958  64.4700 295.9062 14.36996754507763
Epoch: 2025-12-17T12:25Z
TLE epoch observation values (Epoch: 2025-12-17T12:25:54.930Z)
Latitude
-0.00002°
Longitude
-176.24238°
Altitude
763.611 km
Speed
7.477 km/s
True Right ascension
06h 26m 29s
True Declination
0° 00' 00"
Sunlit
Object was in full shadow at epoch
Visualization orbit readout
Latitude
Unknown
Longitude
Unknown
Altitude
Unknown
Speed
Unknown
Apparent Right ascension
Unknown
Apparent Declination
Unknown
Sunlit
N/A
Visualization observer readout
Local Sidereal Time
17:17:59
Azimuth
Unknown
Elevation
Unknown
Doppler factor
Unknown
Orbital elements
Apogee altitude
783.415 km
Perigee altitude
747.756 km
Semi-major axis
7,143.722 km
Eccentricity
0.0025
Inclination
98.9358°
RAAN
96.6232°
Arg. of periapsis
64.47°
True anomaly
295.64859°
Mean anomaly
295.9062°
Eccentric anomaly
295.77743°
Mean motion
3.59465 °/min
Orbital period
100.15 mins
BSTAR
0.00299
Loading maneuver chart data...
Computing Atmospheric mass density...
Loading historical data...
Loading historical data...
Loading historical data...
Loading historical data...
Loading historical data...
Loading historical data...
Loading historical data...

Documentation

Showing up to 5 results
|